Location: ?????????
(54.7630°N, 39.4991°E)
Time: 07:46:49
(UTC+00:00)

Cosmos 1378 Rocket - Pass Details

Date: 14 April 2026
Orbit: 594 x 619 km, 82.5° (Epoch: 12 May)

Event Time Altitude Azimuth Distance (km) Brightness Sun altitude
Rises 17:20:35 0° 352° (N) 2,910 7.6 -8.3°
Reaches altitude 10° 17:22:59 10° 2° (N) 1,997 6.6 -8.6°
Maximum altitude 17:27:04 35° 69° (ENE) 1,002 4.3 -9.1°
Enters shadow 17:30:40 12° 133° (SE) 1,821 5.3 -9.6°
